DMSP 5D-2 F13 DEB, 40673

Orbit data source: Space-Track

DMSP 5D-2 F13 DEB, 40673 is space debris in SSO originally from a launch on Fri, 24 Mar 1995 UTC launched from the Air Force Western Test Range (AFWTR). Debris objects in space refer to the collection of defunct objects orbiting the Earth. Examples of debris include non-operational satellites, rocket bodies, and fragments generated from explosions, collisions, or faulty payload assembly.

Loading next visibility...
Identifier
40673, 1995-015FM
Orbit
SSO
Country
Flag of USUS
Related business
Manufacturer
Unknown
Mission
Spacecraft
Bus & Motor
Unknown
Mass
Unknown
Launch date (UTC)
1995-03-24 (31 years ago)
Launch vehicle
Unknown
Launch site
Air Force Western Test Range (AFWTR)
Object type
Payload
Rocket body
Debris
Shape & HBR
Unknown shape, 0.1 m
Radar Cross Section
Small (<0.1 m²)

Expand to show TLE details & history
Last TLE update: 18 hours ago

TLE from 18 hours ago
0 DMSP 5D-2 F13 DEB
1 40673U 95015FM  26132.30391236  .00000284  00000-0  14591-3 0  9998
2 40673  98.6957 148.9218 0024281 129.5328 230.8001 14.22649285575639
Epoch: 2026-05-12T07:17Z
TLE epoch observation values (Epoch: 2026-05-12T07:17:38.027Z)
Latitude
-0.00005°
Longitude
169.43315°
Altitude
830.394 km
Speed
7.432 km/s
True Right ascension
09h 55m 41s
True Declination
0° 00' 00"
Sunlit
Object was in daylight at epoch
Visualization orbit readout
Latitude
Unknown
Longitude
Unknown
Altitude
Unknown
Speed
Unknown
Apparent Right ascension
Unknown
Apparent Declination
Unknown
Sunlit
N/A
Visualization observer readout
Local Sidereal Time
09:58:21
Azimuth
Unknown
Elevation
Unknown
Doppler factor
Unknown
Orbital elements
Apogee altitude
831.024 km
Perigee altitude
796.099 km
Semi-major axis
7,191.698 km
Eccentricity
0.00243
Inclination
98.6957°
RAAN
148.9218°
Arg. of periapsis
129.5328°
True anomaly
230.58489°
Mean anomaly
230.8001°
Eccentric anomaly
230.69246°
Mean motion
3.55874 °/min
Orbital period
101.16 mins
BSTAR
0.00014591

Documentation

Showing up to 5 results
|